Wind_Speed
61 59 56 54 50 48 46 44 42 40 36 35 35 35 34 32 31 30 29 29 30 29 28 30 34 32 34 35 34 35 35 36 38 39 40 41 46 51 56 59 64 67 69 65 55
63 65 62 58 56 53 52 49 46 44 42 39 37 34 35 34 32 30 31 30 31 31 31 32 36 33 35 36 36 37 37 36 41 42 44 49 50 50 55 58 64 66 70 63 50
64 64 64 64 60 57 55 55 53 48 46 43 42 39 37 35 34 32 34 34 34 33 33 33 37 35 35 36 35 37 36 33 37 43 45 45 48 52 56 60 63 66 68 65 50
68 67 66 65 62 59 59 56 55 53 50 47 45 44 42 42 39 39 38 38 38 37 34 37 37 40 36 37 34 34 35 32 39 45 46 49 51 53 53 59 64 66 63 62 65
70 70 68 68 67 63 61 59 58 57 52 49 48 48 47 46 47 43 43 43 41 40 39 39 36 42 40 37 37 36 35 33 37 43 49 49 52 54 55 63 65 64 65 60 66
68 68 70 70 69 67 65 63 61 61 59 55 53 51 52 50 49 48 45 45 44 43 39 38 36 39 46 38 36 39 37 36 40 41 49 52 53 55 55 63 59 65 59 52 54
75 72 70 68 68 71 70 68 65 63 62 60 57 57 55 54 55 51 49 49 47 46 41 40 40 40 40 43 40 40 40 38 40 43 45 53 53 56 56 61 57 61 56 52 46
81 77 75 73 70 68 69 69 69 65 65 63 62 60 59 56 58 49 49 48 46 45 45 45 44 46 41 42 42 42 41 41 44 47 47 53 52 58 53 58 63 56 51 50 38
87 86 83 79 75 74 72 69 67 67 67 66 65 61 58 56 57 53 49 48 47 46 47 48 48 50 47 44 45 45 46 44 46 49 48 54 56 56 50 58 61 50 48 38 34
93 91 89 87 83 81 77 74 70 69 66 65 62 57 58 56 57 56 51 50 50 50 50 50 51 53 51 48 48 49 49 51 48 49 51 54 59 57 50 61 50 42 42 40 37
99 97 95 93 90 90 85 82 75 71 67 66 66 64 61 58 59 59 57 53 54 54 54 52 55 57 55 53 52 52 54 57 57 54 55 56 60 55 56 51 46 45 42 42 37
102 102 101 99 97 96 93 87 81 76 74 72 70 68 68 63 63 61 59 59 58 58 57 57 60 58 58 57 56 54 54 59 59 62 60 58 60 56 51 45 40 43 41 42 37
107 106 104 103 103 101 98 92 89 85 82 81 78 73 75 67 69 68 65 66 63 62 63 63 62 60 60 59 58 56 58 63 61 61 62 62 58 55 48 39 35 41 39 35 33
113 112 109 107 105 106 102 99 96 95 89 88 83 81 81 74 74 75 71 68 68 68 66 69 64 64 65 64 61 61 64 65 65 61 63 58 55 53 52 37 36 35 37 32 35
111 110 110 113 110 107 103 101 102 101 92 96 93 88 86 79 86 80 76 74 75 74 69 75 70 68 67 69 66 66 67 67 69 67 62 58 56 59 39 34 36 32 32 30 30
110 110 109 112 112 109 108 107 104 101 93 97 99 95 91 88 88 86 80 80 79 77 75 78 76 71 71 73 72 71 70 70 69 62 59 61 58 47 35 40 33 28 28 26 29
95 102 108 110 109 108 111 110 108 100 98 101 99 94 92 93 93 89 86 84 83 80 78 79 78 75 74 72 72 73 71 67 62 59 52 61 54 34 36 38 32 27 26 24 27
89 91 92 101 103 105 108 109 104 101 104 103 99 96 94 89 89 89 86 84 83 82 80 76 77 76 74 71 71 72 71 69 64 56 52 52 39 38 36 37 27 21 19 21 26
89 94 93 90 88 94 98 101 98 98 99 101 100 100 95 92 90 86 82 80 80 80 77 73 69 75 71 68 70 61 58 58 59 52 49 46 41 43 36 29 18 20 23 23 26
65 73 81 92 92 91 91 86 84 89 91 95 95 93 90 90 87 83 80 80 78 77 76 73 67 67 63 65 57 49 50 47 43 44 44 41 40 37 35 19 19 21 14 15 14
53 56 62 69 77 87 89 80 78 84 86 93 91 89 86 82 79 79 81 77 74 72 68 62 54 53 51 46 44 45 44 41 41 40 40 41 38 33 30 19 18 20 12 14 21
47 48 50 57 63 69 76 83 88 89 85 85 83 78 76 71 69 69 68 66 63 63 60 55 52 48 40 42 40 42 40 38 41 40 38 34 29 29 25 20 18 16 6 16 24
42 40 39 44 53 64 73 81 84 86 81 76 73 69 66 64 61 59 55 54 50 49 46 40 36 41 41 41 39 40 41 40 36 35 33 32 28 29 24 21 20 16 14 22 31
39 34 31 35 42 53 62 75 82 82 81 75 69 64 62 57 53 53 54 49 44 41 41 41 41 42 46 46 43 42 40 39 32 28 29 29 29 31 28 22 19 19 20 27 31
35 32 30 32 37 46 54 62 75 80 79 73 68 61 59 54 51 50 55 53 45 43 46 47 44 46 46 50 46 40 40 36 34 32 32 31 31 34 28 22 21 21 21 28 41
33 31 28 24 34 38 45 57 65 71 73 70 64 56 55 52 54 58 59 54 46 45 47 47 45 46 51 52 46 39 44 38 37 32 34 32 31 30 25 24 25 24 30 29 37
33 31 28 26 28 35 38 47 56 62 63 64 60 59 62 65 60 58 58 55 51 47 45 45 45 49 51 48 41 40 44 43 38 34 34 33 31 29 30 28 25 29 35 32 40
Wind_Direction
228 230 231 232 235 238 242 245 248 251 253 256 259 262 265 269 273 278 280 288 292 295 298 301 301 306 311 311 307 308 317 327 327 330 331 338 344 354 351 355 352 351 354 354 357
226 229 232 234 237 239 240 243 245 248 252 253 256 261 263 265 267 273 280 285 290 291 293 294 298 303 307 309 312 312 317 325 324 326 333 338 341 347 345 349 350 349 350 351 358
227 229 230 232 236 239 242 242 244 246 246 251 254 258 261 263 268 270 281 282 284 288 290 291 293 299 302 306 310 313 315 324 321 322 326 331 334 341 343 344 346 344 350 350 353
233 230 230 232 233 236 239 242 243 245 246 246 250 254 257 261 268 270 277 281 282 284 286 286 291 294 297 302 306 310 312 320 324 320 321 330 333 338 341 340 340 348 350 347 344
240 236 235 234 235 236 237 240 242 244 246 248 251 253 256 261 267 270 274 277 279 279 283 285 288 291 292 298 304 307 311 315 316 320 319 326 331 336 336 334 340 343 344 339 341
241 243 243 242 240 241 240 239 242 243 245 248 250 252 255 262 264 268 271 273 274 277 278 281 284 286 291 296 299 303 305 310 314 319 321 323 327 329 335 332 335 334 340 337 333
239 242 244 245 245 244 243 241 243 247 247 247 252 255 259 261 262 265 268 270 275 277 280 279 281 282 288 292 293 300 306 315 313 313 319 319 327 327 329 328 329 333 339 332 330
241 241 242 243 245 245 246 246 246 243 247 250 250 253 256 262 264 265 266 268 272 273 277 274 278 279 283 288 292 299 303 308 313 315 318 316 325 324 330 327 330 335 334 330 323
241 243 243 242 242 244 245 246 248 248 250 251 254 255 256 259 265 264 266 268 270 271 271 271 274 278 281 285 288 298 305 308 308 312 314 313 313 318 331 328 331 330 329 323 315
240 241 243 244 245 245 244 246 244 246 250 252 253 255 258 259 262 264 264 266 264 266 269 271 274 276 278 285 287 296 301 305 305 309 310 312 312 321 328 327 328 327 325 326 320
241 242 242 243 244 246 245 245 243 246 250 252 252 255 259 258 262 261 264 262 263 266 270 273 274 275 279 283 286 292 299 300 305 305 309 314 315 319 324 330 321 321 320 323 322
242 242 243 244 244 244 244 246 244 246 248 250 251 253 253 256 259 259 261 263 265 265 269 271 273 276 279 281 286 290 295 299 304 309 310 316 319 324 327 324 315 317 316 318 323
240 242 243 244 243 244 245 245 245 245 247 247 247 251 253 253 256 257 261 260 264 268 270 270 271 275 279 282 286 290 295 298 303 308 310 316 320 321 323 320 311 314 307 315 315
241 240 241 243 244 245 245 245 246 246 246 249 247 251 252 252 257 256 259 260 265 266 269 273 274 277 281 285 286 292 295 298 301 304 308 313 315 317 320 315 310 304 310 311 307
239 241 242 243 243 245 245 247 247 246 247 249 249 251 253 253 256 256 258 261 262 264 269 273 274 277 282 284 287 289 291 296 298 303 306 306 310 312 309 301 300 294 291 304 308
238 240 241 242 242 244 244 246 246 246 249 250 251 250 252 253 256 256 257 261 263 266 270 274 276 280 283 285 287 289 292 295 299 301 302 301 305 306 295 298 292 286 288 291 293
239 240 239 241 242 244 244 245 246 247 249 251 251 252 252 255 256 259 261 263 266 268 271 273 275 281 284 284 286 288 291 295 297 299 298 299 308 291 285 285 273 270 278 279 290
238 239 241 242 241 242 243 245 245 247 249 250 251 253 253 254 257 258 260 263 265 268 270 274 276 277 281 286 288 291 291 292 294 297 292 297 291 278 277 271 261 273 272 288 284
240 240 240 241 240 241 241 243 244 245 248 249 250 250 252 253 256 258 261 263 264 268 272 273 275 278 282 282 286 291 290 289 293 291 285 282 275 274 273 271 248 256 265 274 263
240 241 244 242 239 241 243 241 242 243 243 245 247 248 250 253 256 258 260 261 265 267 271 275 277 280 280 284 284 282 283 285 280 277 279 269 268 268 274 256 237 253 262 270 218
240 237 239 241 240 240 240 239 239 238 237 243 244 247 248 250 253 255 258 261 265 267 269 271 273 277 278 279 276 278 277 272 273 275 274 271 266 269 268 248 235 248 272 224 213
239 236 239 241 239 236 232 231 233 236 236 239 242 244 246 247 250 251 256 259 261 264 266 266 270 270 265 269 273 271 270 266 264 264 262 261 257 256 252 244 250 265 252 219 206
239 236 239 241 236 231 227 226 226 231 235 237 239 240 242 244 245 248 250 252 253 256 262 260 255 256 260 262 262 263 263 263 260 265 263 253 243 246 246 244 247 252 252 223 229
236 235 242 240 233 227 225 223 223 226 228 230 233 236 239 239 241 242 246 243 244 246 246 246 246 251 258 259 261 259 259 259 253 246 242 239 235 239 241 239 245 251 256 228 235
231 231 236 236 227 223 221 221 222 224 226 227 229 231 233 235 235 238 240 241 239 236 239 244 248 251 253 257 258 255 248 245 246 239 232 223 226 237 237 247 255 264 274 252 237
228 231 238 237 220 221 221 220 218 222 225 225 227 229 234 234 229 232 234 239 240 243 242 248 252 253 255 255 253 246 240 239 238 231 226 221 224 226 238 237 247 265 271 262 253
223 223 234 234 220 216 221 222 220 219 221 222 223 223 227 228 227 228 234 237 237 236 237 245 248 253 255 249 240 231 237 234 230 217 222 217 216 220 228 231 243 258 254 253 243
Height
10983 10987 10992 10996 10999 11002 11005 11009 11011 11014 11015 11016 11017 11017 11018 11019 11021 11021 11021 11021 11022 11022 11022 11019 11016 11017 11014 11012 11013 11012 11013 11008 11003 11000 10997 10994 10988 10981 10977 10972 10967 10961 10957 10952 10945
10976 10980 10984 10988 10992 10996 10998 11002 11006 11008 11011 11012 11013 11013 11013 11014 11015 11017 11016 11018 11017 11018 11019 11018 11013 11015 11012 11009 11007 11007 11007 11003 10998 10993 10992 10984 10983 10982 10976 10971 10965 10960 10955 10951 10946
10967 10972 10976 10980 10984 10988 10991 10995 10999 11001 11005 11006 11007 11008 11008 11009 11010 11013 11010 11012 11013 11013 11014 11013 11009 11011 11008 11006 11007 11004 11004 11002 10998 10992 10989 10989 10985 10977 10971 10967 10966 10961 10950 10944 10941
10957 10962 10967 10971 10976 10980 10984 10987 10991 10994 10997 11000 11002 11002 11003 11003 11005 11007 11007 11005 11007 11008 11009 11009 11006 11003 11004 11003 11004 11004 11002 11001 10993 10987 10986 10980 10978 10974 10971 10968 10964 10951 10942 10938 10937
10946 10951 10955 10961 10966 10971 10975 10978 10982 10986 10989 10992 10995 10996 10997 10999 11000 11002 11001 11001 11000 11002 11004 11003 11004 10996 10998 10999 10998 10998 10999 10999 10994 10988 10981 10979 10975 10972 10966 10964 10955 10949 10945 10939 10935
10933 10939 10945 10950 10955 10960 10965 10969 10973 10977 10981 10983 10986 10988 10990 10992 10993 10995 10995 10994 10994 10995 10998 10998 10998 10995 10987 10995 10994 10992 10994 10995 10990 10989 10979 10975 10972 10971 10969 10961 10955 10951 10945 10938 10932
10920 10926 10932 10938 10943 10948 10953 10958 10964 10966 10971 10975 10977 10980 10983 10983 10984 10988 10989 10989 10989 10990 10991 10992 10993 10993 10989 10986 10987 10986 10987 10987 10986 10986 10983 10973 10970 10967 10967 10959 10953 10947 10941 10936 10931
10907 10912 10918 10924 10930 10935 10941 10947 10954 10957 10960 10965 10967 10971 10974 10974 10976 10982 10979 10981 10983 10983 10986 10985 10985 10983 10986 10983 10982 10981 10983 10983 10980 10979 10978 10969 10972 10963 10964 10955 10948 10942 10939 10935 10929
10892 10898 10904 10910 10916 10921 10927 10934 10942 10948 10951 10955 10959 10962 10966 10968 10966 10971 10974 10975 10976 10976 10978 10978 10979 10976 10978 10979 10977 10977 10975 10976 10975 10974 10973 10967 10969 10964 10960 10946 10940 10933 10933 10930 10924
10874 10881 10889 10896 10902 10906 10912 10919 10928 10935 10941 10946 10950 10954 10955 10960 10959 10960 10964 10969 10968 10968 10970 10973 10971 10969 10971 10973 10972 10970 10968 10965 10971 10973 10969 10965 10960 10960 10954 10939 10931 10928 10927 10927 10920
10855 10863 10871 10879 10885 10889 10898 10903 10916 10927 10932 10936 10940 10943 10944 10950 10950 10951 10952 10958 10959 10961 10963 10966 10963 10961 10963 10965 10967 10965 10960 10953 10954 10959 10958 10956 10951 10959 10949 10937 10927 10925 10925 10924 10923
10836 10843 10850 10859 10867 10871 10880 10892 10903 10913 10915 10920 10924 10929 10931 10938 10938 10941 10944 10946 10949 10950 10953 10956 10952 10954 10954 10957 10958 10959 10955 10948 10946 10940 10942 10945 10942 10939 10939 10933 10926 10919 10918 10916 10919
10816 10824 10831 10839 10846 10851 10864 10879 10888 10895 10899 10901 10908 10915 10913 10927 10923 10927 10934 10936 10939 10941 10942 10944 10944 10947 10945 10948 10950 10950 10948 10940 10942 10938 10933 10936 10934 10932 10930 10924 10919 10911 10911 10911 10912
10794 10803 10809 10818 10826 10832 10848 10858 10866 10872 10884 10887 10895 10899 10901 10912 10915 10913 10922 10927 10929 10929 10933 10928 10936 10937 10937 10937 10940 10941 10936 10932 10930 10933 10931 10930 10928 10924 10923 10920 10915 10914 10908 10907 10905
10770 10779 10788 10798 10804 10816 10829 10836 10843 10852 10871 10866 10874 10884 10886 10903 10886 10903 10910 10914 10915 10917 10926 10913 10923 10927 10929 10924 10930 10931 10928 10924 10922 10923 10923 10922 10922 10917 10917 10915 10914 10913 10907 10905 10901
10745 10756 10765 10773 10782 10800 10807 10811 10823 10834 10854 10851 10850 10865 10874 10881 10879 10887 10899 10901 10903 10907 10911 10905 10908 10917 10915 10914 10915 10915 10916 10915 10914 10914 10914 10908 10918 10911 10910 10906 10905 10906 10905 10901 10899
10722 10731 10742 10748 10764 10779 10785 10791 10805 10824 10827 10823 10833 10849 10860 10862 10867 10876 10885 10889 10890 10895 10897 10895 10898 10902 10904 10902 10901 10900 10904 10905 10905 10904 10901 10898 10904 10904 10901 10898 10898 10900 10901 10899 10897
10702 10710 10718 10725 10747 10757 10760 10771 10791 10805 10801 10805 10821 10829 10838 10847 10851 10860 10869 10873 10873 10878 10882 10885 10886 10888 10890 10889 10888 10890 10890 10892 10894 10894 10890 10889 10895 10894 10894 10892 10892 10894 10896 10893 10891
10681 10689 10697 10713 10723 10731 10736 10753 10778 10780 10779 10789 10800 10809 10817 10829 10835 10845 10853 10854 10855 10862 10870 10873 10870 10876 10878 10874 10876 10879 10877 10877 10881 10880 10878 10877 10881 10879 10882 10886 10888 10888 10889 10888 10884
10663 10671 10680 10688 10701 10710 10718 10741 10755 10757 10757 10765 10778 10792 10802 10812 10823 10829 10832 10832 10845 10852 10856 10858 10856 10862 10860 10864 10864 10865 10864 10866 10869 10867 10868 10867 10867 10867 10870 10880 10880 10881 10882 10879 10880
10651 10659 10662 10669 10678 10689 10706 10723 10734 10729 10738 10744 10760 10776 10787 10796 10807 10811 10811 10828 10832 10837 10842 10844 10846 10849 10849 10852 10851 10853 10854 10856 10856 10858 10860 10860 10858 10859 10862 10871 10872 10873 10875 10874 10875
10641 10647 10651 10654 10661 10671 10683 10696 10703 10703 10722 10732 10745 10760 10774 10785 10790 10790 10802 10814 10819 10820 10827 10832 10835 10834 10838 10838 10841 10840 10843 10846 10845 10847 10847 10847 10848 10849 10855 10861 10863 10862 10866 10866 10864
10629 10636 10639 10640 10645 10652 10663 10676 10689 10693 10710 10724 10735 10748 10760 10770 10776 10777 10792 10797 10806 10808 10814 10819 10825 10822 10825 10827 10830 10830 10830 10831 10836 10838 10838 10839 10840 10839 10847 10853 10855 10856 10855 10857 10854
10620 10627 10628 10628 10633 10639 10649 10661 10675 10682 10694 10709 10724 10735 10744 10756 10763 10768 10774 10785 10792 10798 10803 10807 10811 10815 10810 10811 10816 10820 10820 10820 10826 10827 10828 10832 10835 10832 10835 10843 10844 10847 10846 10847 10845
10612 10617 10618 10619 10624 10630 10638 10651 10660 10670 10681 10697 10711 10721 10731 10742 10751 10757 10762 10770 10780 10786 10789 10794 10800 10800 10800 10797 10804 10811 10806 10809 10815 10818 10819 10825 10827 10827 10832 10835 10836 10838 10839 10838 10837
10604 10608 10612 10616 10618 10624 10632 10638 10647 10659 10673 10690 10703 10715 10720 10730 10737 10742 10747 10757 10768 10775 10779 10781 10787 10787 10785 10787 10794 10799 10793 10796 10800 10809 10812 10817 10820 10822 10824 10828 10829 10830 10828 10822 10822
10596 10602 10606 10610 10614 10620 10626 10633 10643 10654 10664 10679 10691 10700 10705 10710 10721 10730 10736 10744 10754 10761 10767 10770 10773 10774 10772 10775 10781 10783 10782 10784 10791 10799 10805 10810 10815 10817 10818 10821 10823 10823 10823 10825 10825